{"data":{"norad_id":53629,"epoch":"2026-05-25T00:36:44.267904Z","epoch_age_seconds":79677,"freshness":"FRESH","line1":"1 53629U 22104AT  26145.02551236  .00000662  00000+0  59655-4 0  9993","line2":"2 53629  53.2178 251.1111 0000609 232.7288 127.3648 15.08840022207282","mean_motion":15.08840022,"eccentricity":6.09e-5,"inclination_deg":53.2178,"raan_deg":251.1111,"arg_perigee_deg":232.7288,"mean_anomaly_deg":127.3648,"bstar":5.9655e-5,"rev_number":20728,"period_min":95.437553286216,"perigee_km":539.32202280731,"apogee_km":540.1646206305,"semimajor_km":6917.8803217189,"source":"CELESTRAK","updated_at":"2026-05-25T13:38:17.480904Z"}}